Temperature
6 6 6 6 6 6 7 7 7 7 7 7 7 7 8 8 8 7 8 8 7 7 7 7 7 7 7 7 7 7 6 6 6 6 6 6 6 7 7 7 7 7 7
5 5 6 6 6 6 6 6 6 7 7 7 7 7 7 7 7 7 7 7 7 7 7 7 6 6 6 6 6 6 6 5 5 5 5 6 6 6 6 6 6 6 6
5 5 5 5 6 6 6 6 6 6 6 6 6 6 6 6 6 6 6 6 6 6 6 6 6 6 6 5 5 5 5 5 4 4 4 5 5 5 5 5 5 5 5
5 5 5 5 5 5 5 5 5 5 5 6 6 6 6 6 5 5 5 5 5 5 5 5 5 5 5 5 4 4 4 4 4 4 4 4 4 4 4 4 4 4 4
5 5 5 5 5 5 5 5 5 5 5 5 5 5 5 5 5 5 5 5 5 5 4 4 4 4 4 4 3 3 3 3 3 3 3 3 3 3 3 3 3 3 4
5 5 5 4 4 4 5 4 4 4 4 4 4 4 4 4 4 4 4 4 4 4 4 4 3 3 3 3 3 3 3 2 2 2 2 2 2 2 2 2 2 2 3
4 4 4 4 4 4 4 4 4 4 4 4 3 3 3 3 3 3 3 3 3 3 3 3 3 2 2 2 2 2 2 2 2 1 1 1 1 1 1 1 2 2 2
4 4 4 4 3 3 3 3 3 3 3 3 3 3 3 3 2 2 2 2 2 2 2 2 2 2 1 1 1 2 2 2 1 1 1 1 1 1 1 1 1 1 1
4 3 3 3 3 3 3 3 3 3 2 2 2 2 2 2 2 2 2 2 2 1 1 1 1 1 1 1 1 1 1 1 1 1 1 1 0 0 0 0 0 0 0
3 3 3 3 3 3 3 2 2 2 2 2 2 1 1 1 1 1 1 1 1 1 1 1 1 0 0 0 -0 -0 -0 -0 -0 -0 0 0 0 -0 -0 -0 -0 -1 -0
3 3 3 3 2 2 2 2 2 2 1 1 1 1 1 1 1 1 0 0 0 0 0 0 -0 -0 -0 -0 -1 -1 -1 -1 -1 -1 -1 -0 -0 -0 -1 -1 -1 -1 -1
3 3 3 2 2 2 2 2 1 1 1 1 1 1 0 0 -0 -0 -0 -0 -1 -1 -1 -1 -1 -1 -1 -1 -1 -1 -1 -1 -1 -1 -1 -1 -1 -1 -1 -1 -1 -1 -1
3 3 2 2 2 2 1 1 1 1 1 0 0 0 -0 -0 -1 -1 -1 -1 -1 -1 -1 -2 -2 -1 -1 -1 -1 -2 -2 -2 -2 -2 -2 -2 -2 -2 -2 -2 -2 -2 -2
3 3 2 2 2 1 1 1 1 0 0 -0 -0 -1 -1 -1 -1 -1 -1 -1 -1 -2 -2 -2 -2 -2 -2 -2 -2 -2 -2 -3 -3 -3 -3 -3 -2 -2 -2 -2 -2 -2 -2
3 2 2 2 1 1 1 0 0 0 -0 -0 -1 -1 -2 -2 -2 -2 -2 -2 -2 -3 -3 -3 -2 -2 -3 -3 -3 -3 -3 -3 -3 -3 -3 -3 -3 -3 -3 -3 -3 -3 -3
2 2 2 1 1 1 0 0 -0 -1 -1 -1 -1 -2 -2 -2 -3 -3 -3 -3 -3 -3 -3 -3 -3 -4 -4 -4 -4 -4 -4 -4 -4 -4 -4 -4 -4 -4 -4 -4 -4 -4 -4
2 2 2 1 1 0 0 -0 -0 -1 -1 -1 -2 -2 -2 -3 -3 -3 -3 -3 -3 -4 -4 -4 -4 -4 -4 -4 -4 -4 -4 -4 -4 -4 -4 -4 -4 -4 -5 -4 -4 -4 -4
2 1 1 1 1 0 -0 -1 -1 -1 -1 -1 -2 -2 -3 -3 -3 -3 -4 -4 -4 -4 -4 -5 -5 -5 -5 -5 -5 -5 -5 -5 -5 -5 -5 -5 -5 -5 -5 -5 -5 -5 -5
1 1 1 1 0 -0 -0 -1 -1 -2 -2 -2 -2 -3 -3 -3 -3 -4 -4 -4 -4 -5 -5 -5 -5 -5 -5 -5 -5 -5 -5 -5 -5 -5 -5 -5 -5 -5 -5 -5 -5 -5 -5
1 1 0 0 -0 -0 -1 -1 -2 -2 -2 -3 -3 -3 -4 -4 -4 -4 -4 -5 -5 -5 -5 -5 -6 -6 -6 -6 -6 -6 -6 -6 -6 -6 -6 -6 -6 -5 -5 -6 -6 -6 -6
1 0 0 -0 -0 -1 -1 -2 -2 -3 -3 -3 -3 -4 -4 -4 -5 -5 -5 -5 -5 -6 -6 -6 -6 -6 -6 -6 -6 -6 -6 -6 -6 -6 -6 -6 -6 -6 -6 -6 -6 -6 -6
0 0 -0 -0 -1 -1 -2 -2 -2 -3 -3 -4 -4 -4 -5 -5 -5 -5 -5 -6 -6 -6 -6 -6 -6 -6 -6 -6 -6 -6 -6 -6 -6 -7 -7 -7 -6 -6 -6 -6 -6 -6 -6
-0 -0 -1 -1 -1 -2 -2 -2 -3 -3 -4 -4 -4 -5 -5 -5 -5 -6 -6 -6 -6 -6 -6 -6 -6 -6 -7 -7 -7 -7 -7 -7 -7 -7 -7 -7 -7 -7 -7 -6 -6 -6 -6
-0 -1 -1 -1 -2 -2 -2 -3 -3 -4 -4 -4 -5 -5 -5 -6 -6 -6 -6 -6 -7 -7 -7 -7 -7 -7 -7 -7 -7 -7 -7 -7 -7 -7 -7 -7 -7 -7 -7 -7 -7 -7 -7
-1 -1 -1 -2 -2 -2 -3 -3 -4 -4 -4 -5 -5 -6 -6 -6 -6 -6 -7 -7 -7 -7 -7 -7 -7 -7 -7 -7 -7 -7 -7 -7 -7 -7 -7 -7 -7 -7 -7 -7 -7 -7 -7
-1 -2 -2 -2 -3 -3 -3 -4 -4 -4 -5 -5 -6 -6 -6 -6 -7 -7 -7 -7 -7 -7 -7 -7 -7 -7 -7 -7 -7 -7 -7 -7 -7 -7 -7 -7 -7 -7 -7 -7 -7 -7 -7
Wind_Speed
5 4 3 3 2 2 2 2 2 1 1 1 1 1 1 1 0 0 1 0 1 1 1 2 2 2 2 2 2 3 4 5 8 7 4 4 5 7 7 9 11 11 12
5 4 4 3 3 3 3 3 2 2 2 2 1 1 1 1 0 1 1 1 1 2 2 2 3 3 3 3 3 4 5 4 6 10 7 5 6 7 7 7 7 9 10
4 4 4 4 3 3 3 3 3 2 2 2 2 2 1 1 1 1 1 1 2 3 3 3 4 3 4 3 4 4 4 5 5 7 8 6 5 5 6 6 6 6 8
3 4 4 4 3 3 2 2 2 2 2 2 2 2 2 1 1 1 1 2 2 2 3 4 4 4 4 5 5 5 5 6 6 7 7 6 6 5 4 5 6 6 7
4 4 4 4 4 4 3 3 3 3 2 2 2 2 2 2 2 2 1 2 3 3 3 4 4 5 6 5 5 5 5 6 6 7 7 6 6 5 5 5 7 7 7
4 4 4 4 4 4 4 4 3 3 3 3 3 3 3 3 4 4 3 2 3 3 4 4 4 3 5 7 8 8 7 7 7 7 7 8 8 7 6 6 6 7 7
3 4 4 4 4 4 4 4 4 3 3 3 4 4 3 4 5 5 6 4 3 3 3 3 4 4 5 4 6 7 7 9 9 7 8 8 8 8 7 8 7 8 8
3 3 3 3 3 3 4 4 4 4 4 3 3 3 3 5 7 7 8 5 3 4 4 3 3 4 5 6 5 5 5 6 7 5 6 7 7 7 7 8 8 8 7
3 3 3 3 3 4 4 4 3 3 4 3 3 4 4 5 9 9 8 4 4 4 4 4 5 4 8 10 7 6 7 6 8 10 11 10 11 11 9 6 6 6 7
2 2 2 2 3 3 3 3 3 3 3 4 4 4 5 5 9 10 9 3 4 5 5 5 7 8 10 11 7 6 7 7 7 8 8 8 8 8 9 6 5 6 6
1 1 2 2 2 2 2 3 3 3 3 3 4 4 4 5 8 10 10 5 4 5 5 5 6 11 12 12 10 7 9 9 7 6 6 6 6 5 5 5 5 5 6
1 1 1 1 1 2 2 2 2 3 3 3 3 3 3 4 6 8 10 10 8 5 5 5 6 12 13 12 9 9 12 9 5 5 5 5 5 5 5 5 5 5 5
1 1 1 1 1 1 1 2 2 2 2 2 3 3 4 3 5 10 11 11 11 6 5 9 12 13 11 8 9 10 9 5 4 4 5 5 5 5 5 4 4 4 4
2 2 1 1 1 1 1 1 1 1 1 2 2 3 3 4 4 5 6 7 9 8 7 9 12 12 9 9 8 7 5 4 5 5 5 5 5 4 4 4 4 3 3
3 2 2 2 1 1 1 0 0 0 0 1 1 1 3 4 5 9 7 6 6 6 7 5 5 6 6 6 6 5 4 4 5 5 5 5 5 5 4 3 3 3 3
4 3 2 2 2 1 1 0 1 1 2 2 2 2 3 5 8 9 10 10 10 9 6 4 5 5 6 7 7 6 5 5 5 5 5 5 5 5 5 4 3 3 3
5 4 3 3 2 2 2 1 1 2 2 2 3 4 4 6 7 8 9 9 8 8 4 4 5 5 6 6 7 7 6 6 5 5 5 5 5 5 4 4 3 3 3
5 4 4 3 3 3 2 2 2 2 2 2 3 4 5 6 7 8 8 7 5 5 4 4 5 6 6 7 7 7 7 6 6 5 5 5 4 4 4 4 4 3 3
5 4 3 3 3 3 2 2 2 2 2 2 2 3 4 5 6 6 6 3 4 4 4 5 5 6 6 7 7 7 7 6 6 6 5 5 4 4 4 4 4 4 3
5 7 5 3 3 3 3 2 2 2 2 2 2 2 2 2 3 3 3 3 3 4 4 5 5 6 6 6 7 7 7 6 6 6 6 5 4 4 4 5 4 3 2
4 5 7 4 3 3 3 3 3 3 3 3 2 3 3 1 2 3 3 3 3 4 4 5 5 6 6 6 6 7 7 6 6 6 6 5 5 4 4 4 4 2 1
5 5 5 5 4 4 4 3 3 3 3 3 2 3 4 2 2 2 3 3 3 3 4 4 5 5 5 5 6 6 7 7 6 6 6 5 5 4 4 4 3 2 1
5 5 5 4 4 5 4 3 3 3 3 3 3 2 2 2 3 3 3 3 3 3 4 4 5 5 5 5 6 5 6 6 6 6 6 6 5 4 4 3 3 2 1
5 6 5 5 4 4 4 4 4 3 3 3 3 2 2 2 3 3 3 3 3 4 4 4 5 6 8 7 7 7 7 8 7 6 5 5 4 4 3 3 2 2 1
5 5 5 5 5 5 5 4 4 4 3 3 3 3 2 2 3 3 3 3 3 4 5 5 5 6 7 9 9 9 11 11 9 6 5 4 4 4 3 3 2 1 1
5 5 5 4 4 4 4 4 4 4 3 3 3 3 3 3 3 3 3 3 3 4 4 5 6 7 9 9 10 11 12 11 9 8 5 3 3 3 3 2 2 2 1
Wind_Direction
33 34 40 47 48 50 55 52 48 35 44 56 40 56 52 24 337 242 252 229 239 262 267 257 260 266 261 260 261 261 255 256 271 281 275 272 263 263 269 266 266 260 259
28 33 36 38 44 46 39 32 39 38 34 25 26 41 22 11 329 235 263 262 256 261 261 255 255 261 258 263 261 264 264 266 272 281 285 277 265 258 259 262 268 264 260
29 36 38 35 39 38 30 29 29 30 26 22 34 33 14 358 348 300 279 273 259 252 248 246 250 251 256 262 264 263 268 276 271 278 285 287 281 279 276 274 274 266 266
35 38 34 26 25 24 23 30 29 32 28 20 22 16 3 5 13 352 330 301 283 275 269 261 256 249 252 257 261 263 269 270 274 278 282 288 288 285 278 280 284 270 270
38 37 28 25 28 28 27 24 25 31 19 10 12 358 357 9 12 352 315 306 285 278 276 271 265 261 265 271 274 267 267 269 275 278 284 290 291 292 281 276 277 282 273
34 32 27 28 30 28 24 25 26 28 23 30 31 28 25 18 9 8 356 327 314 304 300 299 291 276 286 294 290 285 278 271 268 269 276 283 287 290 287 284 281 282 279
35 31 29 29 33 23 20 27 26 27 35 38 34 30 27 16 10 10 9 4 345 328 322 318 315 319 321 300 300 303 295 292 281 271 276 279 284 284 284 280 276 274 271
46 38 34 35 37 30 33 33 28 30 34 33 30 27 24 18 17 17 12 8 351 344 333 323 329 332 329 324 315 307 296 294 292 284 275 278 281 283 276 273 275 277 277
46 39 33 35 39 38 35 27 25 32 31 29 33 33 33 21 19 15 9 1 358 346 342 349 344 332 330 331 324 312 309 304 305 300 296 295 294 295 295 289 281 277 280
46 39 35 42 47 45 35 28 26 35 32 31 35 34 37 32 21 17 10 3 353 345 342 341 340 336 334 333 323 311 303 302 306 304 302 303 296 292 294 278 269 270 277
79 61 51 52 51 52 45 38 36 39 37 35 36 29 29 27 19 15 9 4 352 342 334 331 333 337 334 328 322 306 301 306 301 298 298 298 298 293 289 284 271 264 266
119 97 70 61 53 48 56 46 43 46 41 30 29 19 18 15 15 9 6 1 351 341 331 326 326 329 329 326 322 317 315 313 301 301 302 302 303 302 296 290 280 272 264
157 173 155 107 85 72 67 53 43 42 42 21 18 10 359 2 3 3 360 355 350 343 330 330 331 334 335 332 333 332 329 316 309 310 308 303 296 293 294 296 298 294 297
188 201 175 146 123 82 69 62 64 40 33 19 8 355 346 349 353 355 351 345 344 340 332 334 340 344 344 337 334 334 330 324 323 312 308 305 308 307 304 306 307 314 314
198 202 185 171 166 152 128 120 128 98 90 29 358 340 338 337 339 344 343 337 333 329 333 339 344 345 346 342 334 330 328 331 331 320 314 314 314 310 304 305 302 307 302
198 201 194 184 176 171 176 312 13 8 23 20 3 345 335 332 334 340 338 337 339 344 350 344 341 342 340 337 334 330 328 330 329 324 317 313 311 308 307 305 298 295 294
199 197 193 187 181 187 195 204 259 306 314 320 328 335 334 336 341 342 341 343 347 355 360 344 338 338 336 333 332 329 326 326 324 320 316 313 310 307 307 308 309 306 302
199 199 193 194 193 194 200 211 222 250 287 295 299 312 326 335 340 345 350 354 352 357 351 341 335 334 333 331 330 329 328 327 327 325 322 318 313 309 307 308 306 302 300
197 195 192 194 196 194 195 204 224 240 258 278 297 311 324 333 338 345 354 355 338 336 336 334 332 332 332 330 328 328 328 327 329 329 325 320 315 313 309 307 305 305 304
200 197 190 192 194 193 196 207 223 236 251 266 276 291 318 334 328 330 334 330 328 326 327 326 327 327 329 329 328 329 327 327 329 330 327 323 320 315 309 306 305 306 304
194 195 193 192 197 200 203 209 216 226 241 256 264 279 302 303 293 302 310 316 320 320 321 321 321 323 325 327 327 327 326 325 325 325 324 323 322 317 310 305 305 303 305
190 191 190 195 198 203 209 209 213 222 235 251 266 280 289 291 286 292 298 304 307 308 312 315 315 317 321 324 323 321 320 322 324 325 322 319 317 314 312 310 316 317 304
189 190 192 195 196 210 215 213 214 220 232 242 255 268 282 280 282 288 295 301 307 310 314 315 314 316 319 317 314 310 310 313 316 316 318 318 318 316 313 312 314 317 307
189 191 194 196 197 202 209 214 216 223 229 237 245 255 265 273 282 289 294 298 302 305 307 308 306 309 316 319 313 307 304 306 307 307 306 307 312 316 315 311 312 309 298
191 193 196 199 201 206 210 213 217 222 229 236 244 253 261 269 276 285 292 295 297 299 304 306 307 312 316 316 315 312 315 319 320 318 307 307 311 314 314 310 309 309 293
192 194 197 196 199 205 210 214 218 221 228 237 242 248 253 257 267 276 282 285 293 296 298 301 307 313 315 314 313 316 321 324 325 323 320 312 315 319 321 320 320 315 295
Height
1443 1443 1443 1444 1445 1445 1446 1446 1447 1448 1449 1450 1451 1452 1454 1454 1455 1456 1457 1458 1459 1460 1461 1461 1462 1463 1464 1464 1465 1465 1465 1464 1461 1458 1459 1459 1459 1458 1457 1457 1455 1454 1453
1443 1443 1443 1443 1444 1444 1444 1445 1446 1447 1447 1448 1449 1449 1450 1451 1452 1453 1453 1453 1454 1455 1456 1456 1457 1457 1458 1458 1458 1458 1458 1457 1456 1452 1451 1451 1450 1450 1449 1448 1447 1446 1445
1444 1444 1443 1443 1443 1443 1443 1444 1445 1445 1446 1446 1446 1447 1447 1448 1448 1448 1449 1449 1450 1450 1451 1451 1451 1452 1452 1452 1452 1451 1451 1451 1450 1448 1444 1444 1443 1442 1441 1440 1439 1438 1437
1445 1445 1444 1443 1443 1443 1443 1443 1444 1444 1444 1444 1444 1444 1444 1444 1444 1445 1445 1445 1445 1446 1446 1446 1446 1446 1446 1446 1445 1445 1445 1444 1443 1441 1438 1437 1436 1435 1434 1432 1430 1429 1429
1446 1445 1444 1443 1443 1443 1442 1442 1442 1442 1442 1442 1441 1441 1441 1441 1441 1441 1441 1441 1441 1441 1441 1440 1440 1440 1440 1440 1440 1439 1438 1437 1436 1435 1432 1430 1429 1428 1426 1425 1423 1422 1420
1446 1445 1444 1444 1443 1442 1442 1441 1441 1441 1440 1439 1439 1438 1438 1438 1438 1437 1437 1436 1436 1436 1435 1435 1434 1434 1434 1434 1434 1434 1433 1432 1430 1429 1427 1425 1423 1422 1421 1419 1418 1415 1412
1446 1445 1444 1443 1442 1441 1440 1440 1439 1439 1438 1437 1437 1436 1435 1435 1435 1435 1434 1433 1432 1431 1431 1430 1430 1429 1429 1428 1428 1427 1426 1426 1425 1424 1421 1419 1418 1416 1415 1413 1411 1409 1407
1446 1445 1444 1443 1442 1441 1440 1439 1438 1437 1436 1436 1435 1434 1434 1433 1433 1432 1431 1430 1429 1428 1427 1426 1425 1424 1424 1423 1422 1421 1420 1419 1418 1417 1415 1413 1412 1410 1409 1407 1405 1403 1401
1445 1445 1444 1443 1441 1440 1439 1438 1438 1437 1436 1435 1434 1433 1432 1431 1430 1429 1428 1427 1426 1425 1424 1423 1422 1421 1419 1418 1417 1415 1414 1413 1412 1411 1409 1407 1406 1404 1403 1401 1399 1396 1393
1445 1444 1443 1442 1441 1440 1439 1438 1437 1436 1435 1434 1433 1432 1430 1429 1428 1427 1426 1425 1423 1422 1421 1420 1418 1417 1416 1414 1413 1411 1408 1407 1405 1404 1402 1401 1399 1397 1396 1394 1392 1391 1388
1445 1444 1443 1442 1441 1440 1439 1438 1436 1435 1434 1433 1432 1431 1429 1428 1427 1426 1424 1423 1421 1419 1418 1416 1414 1413 1411 1410 1408 1406 1404 1402 1400 1398 1396 1394 1392 1390 1389 1388 1386 1385 1383
1444 1443 1442 1441 1440 1439 1438 1437 1435 1434 1433 1432 1431 1430 1429 1427 1426 1424 1422 1421 1419 1417 1415 1413 1411 1409 1407 1405 1403 1401 1399 1397 1395 1392 1390 1388 1386 1384 1383 1381 1380 1378 1377
1442 1441 1440 1440 1439 1438 1437 1436 1435 1433 1432 1431 1430 1428 1427 1426 1424 1422 1420 1419 1417 1415 1412 1410 1408 1406 1403 1401 1399 1396 1394 1392 1390 1388 1385 1383 1381 1379 1378 1376 1374 1373 1371
1440 1439 1438 1438 1437 1436 1436 1435 1434 1432 1431 1429 1428 1427 1425 1424 1422 1420 1418 1416 1414 1412 1409 1407 1405 1403 1400 1397 1394 1392 1390 1388 1386 1384 1381 1379 1377 1375 1374 1372 1370 1368 1367
1436 1436 1436 1435 1435 1434 1434 1433 1432 1431 1430 1428 1427 1426 1424 1422 1420 1419 1416 1414 1411 1409 1407 1404 1402 1399 1396 1393 1390 1388 1386 1384 1382 1380 1378 1376 1374 1372 1370 1368 1367 1365 1364
1433 1433 1432 1432 1432 1432 1431 1431 1430 1429 1428 1427 1425 1424 1422 1421 1418 1416 1414 1412 1409 1407 1404 1402 1399 1396 1393 1390 1387 1385 1383 1380 1378 1377 1375 1373 1371 1369 1367 1365 1364 1362 1361
1429 1429 1429 1429 1429 1428 1428 1427 1427 1426 1426 1424 1423 1421 1420 1418 1416 1414 1411 1409 1407 1404 1402 1399 1397 1394 1391 1389 1386 1383 1380 1378 1376 1374 1372 1370 1368 1366 1364 1363 1361 1360 1359
1425 1425 1425 1425 1425 1425 1425 1424 1423 1422 1422 1420 1419 1418 1416 1414 1413 1411 1409 1407 1404 1402 1399 1397 1394 1392 1389 1387 1384 1381 1378 1376 1373 1371 1369 1367 1365 1363 1362 1361 1359 1358 1357
1421 1421 1421 1421 1421 1421 1421 1420 1420 1419 1418 1416 1415 1414 1413 1411 1410 1408 1406 1404 1401 1399 1397 1395 1392 1390 1387 1385 1382 1379 1376 1373 1371 1369 1367 1365 1363 1361 1360 1358 1357 1356 1355
1416 1416 1417 1417 1417 1417 1417 1416 1416 1415 1414 1413 1411 1410 1409 1407 1406 1404 1403 1401 1399 1397 1395 1392 1390 1388 1385 1383 1380 1377 1374 1372 1369 1367 1365 1363 1361 1359 1358 1357 1355 1354 1353
1411 1411 1412 1412 1412 1412 1412 1412 1411 1411 1410 1409 1408 1407 1405 1404 1402 1401 1399 1398 1396 1394 1392 1390 1388 1385 1383 1380 1378 1375 1373 1370 1368 1365 1363 1361 1359 1357 1356 1355 1354 1353 1352
1406 1406 1407 1407 1407 1407 1407 1407 1407 1406 1405 1405 1403 1403 1401 1400 1398 1397 1396 1395 1393 1391 1389 1387 1385 1383 1380 1378 1376 1373 1371 1368 1366 1363 1361 1359 1358 1356 1355 1354 1352 1351 1351
1401 1401 1402 1402 1402 1402 1402 1402 1402 1401 1401 1400 1399 1398 1397 1396 1395 1394 1393 1391 1390 1388 1386 1384 1382 1380 1378 1376 1374 1371 1369 1366 1364 1362 1360 1358 1356 1355 1353 1352 1351 1350 1350
1396 1396 1397 1397 1397 1397 1397 1397 1397 1397 1396 1396 1395 1394 1393 1392 1391 1390 1389 1388 1386 1385 1383 1381 1379 1377 1375 1373 1371 1369 1367 1365 1363 1360 1358 1357 1355 1354 1352 1351 1351 1350 1349
1391 1391 1392 1392 1392 1392 1393 1393 1392 1392 1392 1391 1391 1390 1389 1388 1387 1386 1385 1384 1383 1381 1380 1378 1376 1374 1372 1371 1369 1367 1365 1363 1361 1359 1357 1355 1354 1353 1352 1351 1350 1349 1349
1386 1387 1387 1387 1388 1388 1388 1388 1388 1388 1387 1387 1386 1386 1385 1384 1383 1383 1382 1381 1379 1378 1377 1375 1373 1371 1370 1368 1366 1365 1363 1361 1359 1357 1356 1354 1353 1352 1351 1350 1349 1349 1349